DW7873 Weather Reports


time (UTC)temp
F
wind
direction
speed
knots
gust
knots
rain 1hr
in
rain 24hr
in
rain mn
in
humidity
%
barometer
mb
20260505024018 59 0 0.9 7.0 0.00 0.00 0.00 51 1009.4
20260505023518 59 213 0.9 8.7 0.00 0.00 0.00 51 1009.4
20260505023042 59 207 0.9 9.6 0.00 0.00 0.00 50 1009.5
20260505022518 59 140 1.7 9.6 0.00 0.00 0.00 51 1009.3
20260505022017 60 0 0.0 5.2 0.00 0.00 0.00 50 1009.4
20260505021532 60 236 1.7 7.0 0.00 0.00 0.00 50 1009.5
20260505021021 60 164 1.7 7.0 0.00 0.00 0.00 49 1009.5
20260505020519 60 0 0.9 6.1 0.00 0.00 0.00 49 1009.4
20260505020038 60 289 0.9 6.1 0.00 0.00 0.00 49 1009.4
20260505015518 61 101 0.0 5.2 0.00 0.00 0.00 48 1009.4
20260505015017 61 153 1.7 5.2 0.00 0.00 0.00 47 1009.3
20260505014540 61 5 0.0 5.2 0.00 0.00 0.00 47 1009.2
20260505014017 62 165 0.9 8.7 0.00 0.00 0.00 47 1009.1
20260505013515 62 0 0.9 9.6 0.00 0.00 0.00 46 1009.1
20260505013040 62 184 1.7 9.6 0.00 0.00 0.00 46 1009.0
20260505012519 62 159 0.9 5.2 0.00 0.00 0.00 46 1008.9
20260505012018 62 228 1.7 7.8 0.00 0.00 0.00 46 1008.8
20260505011534 62 98 0.0 7.8 0.00 0.00 0.00 45 1008.7
20260505011017 62 70 1.7 7.8 0.00 0.00 0.00 45 1008.6
20260505010518 63 180 1.7 12.2 0.00 0.00 0.00 45 1008.5
20260505010035 63 40 1.7 12.2 0.00 0.00 0.00 44 1008.5
20260505005518 63 250 0.9 7.0 0.00 0.00 0.00 44 1008.3
20260505005019 63 236 1.7 7.8 0.00 0.00 0.00 44 1008.1
20260505004555 64 338 0.9 7.8 0.00 0.00 0.00 43 1008.0
20260505004018 64 151 1.7 7.8 0.00 0.00 0.00 43 1007.9
20260505003522 64 248 0.9 7.8 0.00 0.00 0.00 43 1007.7
20260505003033 65 0 1.7 8.7 0.00 0.00 0.00 42 1007.6
20260505002517 65 155 2.6 8.7 0.00 0.00 0.00 41 1007.6
20260505002017 65 234 2.6 8.7 0.00 0.00 0.00 40 1007.4
20260505001539 65 352 1.7 12.2 0.00 0.00 0.00 40 1007.3
20260505001015 66 223 1.7 12.2 0.00 0.00 0.00 39 1007.1
20260505000519 66 338 2.6 10.4 0.00 0.00 0.00 39 1007.0
20260505000037 67 5 1.7 10.4 0.00 0.00 0.00 38 1006.8
20260504235517 67 150 1.7 9.6 0.00 0.00 0.00 37 1006.7
20260504235017 68 334 2.6 6.1 0.00 0.00 0.00 35 1006.7
20260504234536 68 157 1.7 6.1 0.00 0.00 0.00 33 1006.5
20260504234017 68 244 0.9 5.2 0.00 0.00 0.00 32 1006.2
20260504233518 69 0 0.9 4.3 0.00 0.00 0.00 32 1006.2
20260504233032 69 261 0.9 5.2 0.00 0.00 0.00 32 1006.2
20260504232517 69 285 0.0 8.7 0.00 0.00 0.00 31 1006.1
20260504232016 70 0 2.6 8.7 0.00 0.00 0.00 30 1006.0
20260504231540 70 261 2.6 7.0 0.00 0.00 0.00 30 1006.0
20260504231019 70 282 2.6 8.7 0.00 0.00 0.00 30 1005.9
20260504230522 70 311 1.7 8.7 0.00 0.00 0.00 30 1005.9
20260504230038 71 346 1.7 7.0 0.00 0.00 0.00 30 1005.7
20260504225517 71 333 1.7 5.2 0.00 0.00 0.00 29 1005.7
20260504225016 71 348 0.9 9.6 0.00 0.00 0.00 29 1005.7
20260504224539 71 209 0.9 9.6 0.00 0.00 0.00 29 1005.6
20260504224018 71 163 1.7 9.6 0.00 0.00 0.00 30 1005.6
20260504223519 71 262 0.9 5.2 0.00 0.00 0.00 29 1005.5
20260504223032 71 242 0.9 7.0 0.00 0.00 0.00 29 1005.5
20260504222518 72 22 1.7 7.0 0.00 0.00 0.00 29 1005.5
20260504222015 72 297 2.6 8.7 0.00 0.00 0.00 29 1005.5
20260504221538 72 195 2.6 8.7 0.00 0.00 0.00 29 1005.3
20260504221016 72 268 1.7 7.8 0.00 0.00 0.00 29 1005.5
20260504220520 72 296 1.7 9.6 0.00 0.00 0.00 29 1005.5
20260504220035 72 331 2.6 9.6 0.00 0.00 0.00 29 1005.5
20260504215517 72 287 2.6 11.3 0.00 0.00 0.00 29 1005.5
20260504215018 72 310 0.9 11.3 0.00 0.00 0.00 29 1005.6
20260504214536 72 302 0.9 8.7 0.00 0.00 0.00 30 1005.5
20260504214018 72 262 1.7 9.6 0.00 0.00 0.00 29 1005.4
20260504213516 72 284 2.6 9.6 0.00 0.00 0.00 28 1005.4
20260504213041 72 259 1.7 12.2 0.00 0.00 0.00 29 1005.4
20260504212518 72 292 3.5 12.2 0.00 0.00 0.00 28 1005.4
20260504212016 72 350 0.9 7.8 0.00 0.00 0.00 29 1005.5
20260504211536 72 267 2.6 8.7 0.00 0.00 0.00 29 1005.4
20260504211016 72 325 1.7 11.3 0.00 0.00 0.00 28 1005.5
20260504210517 72 313 1.7 11.3 0.00 0.00 0.00 29 1005.5
20260504210032 72 305 4.3 12.2 0.00 0.00 0.00 28 1005.4
20260504205517 72 310 3.5 12.2 0.00 0.00 0.00 28 1005.5
20260504205022 71 175 1.7 10.4 0.00 0.00 0.00 29 1005.5
20260504204536 72 193 3.5 10.4 0.00 0.00 0.00 27 1005.6
20260504204016 73 276 3.5 13.0 0.00 0.00 0.00 28 1005.4
20260504203517 73 321 3.5 13.0 0.00 0.00 0.00 27 1005.5
20260504203035 73 290 3.5 13.9 0.00 0.00 0.00 27 1005.4
20260504202516 73 307 2.6 13.9 0.00 0.00 0.00 26 1005.5
20260504202016 73 352 3.5 13.9 0.00 0.00 0.00 28 1005.5
20260504201533 73 230 1.7 10.4 0.00 0.00 0.00 29 1005.4
20260504201018 73 120 4.3 13.9 0.00 0.00 0.00 27 1005.5
20260504200516 72 211 2.6 13.9 0.00 0.00 0.00 27 1005.5
20260504200033 73 30 2.6 11.3 0.00 0.00 0.00 27 1005.5
20260504195517 73 346 2.6 13.9 0.00 0.00 0.00 26 1005.6
20260504195018 73 284 3.5 13.9 0.00 0.00 0.00 26 1005.6
20260504194535 73 332 2.6 8.7 0.00 0.00 0.00 26 1005.7
20260504194017 72 84 3.5 10.4 0.00 0.00 0.00 27 1005.5
20260504193517 72 313 2.6 12.2 0.00 0.00 0.00 27 1005.8
20260504193041 72 258 4.3 12.2 0.00 0.00 0.00 27 1005.7
20260504192516 73 342 2.6 9.6 0.00 0.00 0.00 25 1005.6
20260504192021 73 275 3.5 13.9 0.00 0.00 0.00 27 1005.7
20260504191557 72 186 2.6 13.9 0.00 0.00 0.00 27 1005.8
20260504191016 72 5 4.3 13.9 0.00 0.00 0.00 27 1005.8
20260504190516 72 344 3.5 13.9 0.00 0.00 0.00 29 1005.9
20260504190031 72 55 4.3 13.9 0.00 0.00 0.00 26 1005.7
20260504185516 72 281 2.6 9.6 0.00 0.00 0.00 30 1005.8
20260504185017 71 130 3.5 9.6 0.00 0.00 0.00 26 1005.9
20260504184541 71 309 2.6 13.0 0.00 0.00 0.00 27 1006.0
20260504184020 72 171 3.5 13.0 0.00 0.00 0.00 28 1006.1
20260504183517 71 301 4.3 13.0 0.00 0.00 0.00 27 1006.1
20260504183035 72 284 4.3 13.0 0.00 0.00 0.00 26 1006.1
20260504182522 71 321 2.6 9.6 0.00 0.00 0.00 28 1006.1
20260504182017 71 94 3.5 12.2 0.00 0.00 0.00 28 1006.2
20260504181534 71 308 2.6 12.2 0.00 0.00 0.00 27 1006.3
20260504181016 71 163 3.5 16.5 0.00 0.00 0.00 27 1006.1
20260504180520 70 300 3.5 16.5 0.00 0.00 0.00 29 1006.3
20260504180036 70 222 4.3 16.5 0.00 0.00 0.00 27 1006.1
20260504175518 70 333 4.3 12.2 0.00 0.00 0.00 27 1006.2
20260504175021 71 174 2.6 12.2 0.00 0.00 0.00 29 1006.2
20260504174537 70 269 3.5 12.2 0.00 0.00 0.00 27 1006.2
20260504174017 70 293 3.5 12.2 0.00 0.00 0.00 28 1006.3
20260504173517 69 316 4.3 12.2 0.00 0.00 0.00 29 1006.4
20260504173035 69 207 3.5 12.2 0.00 0.00 0.00 30 1006.7
20260504172516 69 192 2.6 13.0 0.00 0.00 0.00 29 1006.6
20260504172016 69 316 4.3 13.0 0.00 0.00 0.00 28 1006.8
20260504171530 69 196 4.3 13.0 0.00 0.00 0.00 30 1006.8
20260504171021 69 320 4.3 11.3 0.00 0.00 0.00 28 1006.7
20260504170516 69 227 3.5 11.3 0.00 0.00 0.00 28 1006.8
20260504151015 66 280 4.3 12.2 0.00 0.00 0.00 33 1008.1
20260504150521 66 278 2.6 9.6 0.00 0.00 0.00 34 1008.0
20260504141022 63 360 2.6 7.8 0.00 0.00 0.00 39 1008.7
20260504140516 63 245 1.7 10.4 0.00 0.00 0.00 38 1008.8
20260504130515 59 117 2.6 8.7 0.00 0.00 0.00 41 1009.2
20260504110516 48 302 0.0 1.7 0.00 0.00 0.00 57 1009.5
20260504100517 45 294 0.0 2.6 0.00 0.00 0.00 61 1009.8
20260504081535 43 0 0.0 0.0 0.00 0.00 0.00 62 1009.7
20260504081021 43 0 0.0 0.0 0.00 0.00 0.00 62 1009.6
20260504080517 43 0 0.0 0.0 0.00 0.00 0.00 63 1009.7
20260504050519 37 0 0.0 0.0 0.00 0.00 0.00 70 1009.7
20260504045516 37 0 0.0 0.0 0.00 0.00 0.00 70 1009.7
20260504045019 38 0 0.0 0.0 0.00 0.00 0.00 70 1009.7
20260504044536 38 0 0.0 0.9 0.00 0.00 0.00 70 1009.8
20260504044017 38 0 0.0 0.9 0.00 0.00 0.00 69 1009.8
20260504043526 38 0 0.0 0.9 0.00 0.00 0.00 69 1009.8
20260504043037 38 0 0.0 0.9 0.00 0.00 0.00 68 1009.8
20260504042519 38 0 0.0 0.9 0.00 0.00 0.00 68 1009.7
20260504042017 38 0 0.0 0.9 0.00 0.00 0.00 68 1009.7
20260504041532 38 0 0.0 0.0 0.00 0.00 0.00 68 1009.7
20260504041019 38 0 0.0 0.0 0.00 0.00 0.00 68 1009.6
20260504040519 38 0 0.0 0.0 0.00 0.00 0.00 68 1009.6
20260504040035 38 0 0.0 0.9 0.00 0.00 0.00 68 1009.6
20260504035521 38 0 0.0 0.9 0.00 0.00 0.00 68 1009.5
20260504035021 38 0 0.0 0.9 0.00 0.00 0.00 67 1009.5
20260504034533 38 0 0.0 0.9 0.00 0.00 0.00 67 1009.4
20260504034020 38 0 0.0 0.9 0.00 0.00 0.00 67 1009.5
20260504033519 39 0 0.0 0.9 0.00 0.00 0.00 67 1009.3
20260504033038 39 0 0.0 0.9 0.00 0.00 0.00 66 1009.4
20260504032519 39 0 0.0 0.9 0.00 0.00 0.00 65 1009.3
20260504032017 39 0 0.0 0.9 0.00 0.00 0.00 65 1009.4
20260504031533 39 0 0.0 0.9 0.00 0.00 0.00 65 1009.3
20260504031018 39 0 0.0 0.0 0.00 0.00 0.00 64 1009.4
20260504030519 39 0 0.0 0.0 0.00 0.00 0.00 64 1009.3
20260504030033 39 0 0.0 0.0 0.00 0.00 0.00 63 1009.4
20260504025520 40 0 0.0 0.0 0.00 0.00 0.00 63 1009.4
20260504025019 40 0 0.0 0.0 0.00 0.00 0.00 62 1009.3
20260504024541 40 0 0.0 0.0 0.00 0.00 0.00 62 1009.3